owner,sensor,date,latitude,longitude,vertical_datum,wind_speed,wind_to_direction,wind_speed_of_gust,qcFlag 
WAVCIS,ioos:station:WAVCIS:CSI03:3,2010-12-01T00:00:00Z,29.4412,-92.0613,10.0,9.28,340.0,,'11111222,11111222,99999999' 
WAVCIS,ioos:station:WAVCIS:CSI03:3,2010-12-01T01:00:00Z,29.4412,-92.0613,10.0,9.68,338.0,,'11111222,11111222,99999999' 
WAVCIS,ioos:station:WAVCIS:CSI03:3,2010-12-01T02:00:00Z,29.4412,-92.0613,10.0,8.54,338.0,,'11111222,11111222,99999999' 
WAVCIS,ioos:station:WAVCIS:CSI03:3,2010-12-01T03:00:00Z,29.4412,-92.0613,10.0,7.44,347.0,,'11111222,11111222,99999999' 
WAVCIS,ioos:station:WAVCIS:CSI03:3,2010-12-01T04:00:00Z,29.4412,-92.0613,10.0,8.24,343.0,,'11111222,11111222,99999999' 
WAVCIS,ioos:station:WAVCIS:CSI03:3,2010-12-01T05:00:00Z,29.4412,-92.0613,10.0,8.97,345.0,,'11111222,11111222,99999999' 
WAVCIS,ioos:station:WAVCIS:CSI03:3,2010-12-01T06:00:00Z,29.4412,-92.0613,10.0,9.39,343.0,,'11111222,11111222,99999999' 
WAVCIS,ioos:station:WAVCIS:CSI03:3,2010-12-01T07:00:00Z,29.4412,-92.0613,10.0,8.44,344.0,,'11111222,11111222,99999999' 
WAVCIS,ioos:station:WAVCIS:CSI03:3,2010-12-01T08:00:00Z,29.4412,-92.0613,10.0,8.79,344.0,,'11111222,11111222,99999999' 
WAVCIS,ioos:station:WAVCIS:CSI03:3,2010-12-01T09:00:00Z,29.4412,-92.0613,10.0,8.4,348.0,,'11111222,11111222,99999999' 
WAVCIS,ioos:station:WAVCIS:CSI03:3,2010-12-01T10:00:00Z,29.4412,-92.0613,10.0,6.63,355.0,,'11111222,11111222,99999999' 
WAVCIS,ioos:station:WAVCIS:CSI03:3,2010-12-01T11:00:00Z,29.4412,-92.0613,10.0,5.367,357.0,,'11111222,11111222,99999999' 
WAVCIS,ioos:station:WAVCIS:CSI03:3,2010-12-01T12:00:00Z,29.4412,-92.0613,10.0,4.157,2.0,,'11111222,11111222,99999999' 
WAVCIS,ioos:station:WAVCIS:CSI03:3,2010-12-01T13:00:00Z,29.4412,-92.0613,10.0,3.637,5.0,,'11111222,11111222,99999999' 
WAVCIS,ioos:station:WAVCIS:CSI03:3,2010-12-01T14:00:00Z,29.4412,-92.0613,10.0,1.752,21.0,,'11111222,11111222,99999999' 
WAVCIS,ioos:station:WAVCIS:CSI03:3,2010-12-01T15:00:00Z,29.4412,-92.0613,10.0,2.485,57.0,,'11111222,11111222,99999999' 
WAVCIS,ioos:station:WAVCIS:CSI03:3,2010-12-01T16:00:00Z,29.4412,-92.0613,10.0,2.356,70.0,,'11111222,11111222,99999999' 
WAVCIS,ioos:station:WAVCIS:CSI03:3,2010-12-01T17:00:00Z,29.4412,-92.0613,10.0,1.859,75.0,,'11111222,11111222,99999999' 
WAVCIS,ioos:station:WAVCIS:CSI03:3,2010-12-01T18:00:00Z,29.4412,-92.0613,10.0,0.92,83.0,,'11111222,11111222,99999999' 
WAVCIS,ioos:station:WAVCIS:CSI03:3,2010-12-01T19:00:00Z,29.4412,-92.0613,10.0,0.904,187.0,,'11111222,11111222,99999999' 
WAVCIS,ioos:station:WAVCIS:CSI03:3,2010-12-01T20:00:00Z,29.4412,-92.0613,10.0,1.136,259.0,,'11111222,11111222,99999999' 
WAVCIS,ioos:station:WAVCIS:CSI03:3,2010-12-01T21:00:00Z,29.4412,-92.0613,10.0,1.053,221.0,,'11111222,11111222,99999999' 
WAVCIS,ioos:station:WAVCIS:CSI03:3,2010-12-01T22:00:00Z,29.4412,-92.0613,10.0,1.793,259.0,,'11111222,11111222,99999999' 
WAVCIS,ioos:station:WAVCIS:CSI03:3,2010-12-01T23:00:00Z,29.4412,-92.0613,10.0,0.868,225.0,,'11111222,11111222,99999999' 
WAVCIS,ioos:station:WAVCIS:CSI03:3,2010-12-02T00:00:00Z,29.4412,-92.0613,10.0,1.118,217.0,,'11111222,11111222,99999999' 
WAVCIS,ioos:station:WAVCIS:CSI03:3,2010-12-02T01:00:00Z,29.4412,-92.0613,10.0,1.93,241.0,,'11111222,11111222,99999999' 
WAVCIS,ioos:station:WAVCIS:CSI03:3,2010-12-02T02:00:00Z,29.4412,-92.0613,10.0,1.757,230.0,,'11111222,11111222,99999999' 
WAVCIS,ioos:station:WAVCIS:CSI03:3,2010-12-02T03:00:00Z,29.4412,-92.0613,10.0,1.501,230.0,,'11111222,11111222,99999999' 
WAVCIS,ioos:station:WAVCIS:CSI03:3,2010-12-02T04:00:00Z,29.4412,-92.0613,10.0,1.145,200.0,,'11111222,11111222,99999999' 
WAVCIS,ioos:station:WAVCIS:CSI03:3,2010-12-02T05:00:00Z,29.4412,-92.0613,10.0,1.457,180.0,,'11111222,11111222,99999999' 
WAVCIS,ioos:station:WAVCIS:CSI03:3,2010-12-02T06:00:00Z,29.4412,-92.0613,10.0,0.979,239.0,,'11111222,11111222,99999999' 
WAVCIS,ioos:station:WAVCIS:CSI03:3,2010-12-02T07:00:00Z,29.4412,-92.0613,10.0,1.22,203.0,,'11111222,11111222,99999999' 
WAVCIS,ioos:station:WAVCIS:CSI03:3,2010-12-02T08:00:00Z,29.4412,-92.0613,10.0,0.977,180.0,,'11111222,11111222,99999999' 
WAVCIS,ioos:station:WAVCIS:CSI03:3,2010-12-02T09:00:00Z,29.4412,-92.0613,10.0,1.396,239.0,,'11111222,11111222,99999999' 
WAVCIS,ioos:station:WAVCIS:CSI03:3,2010-12-02T10:00:00Z,29.4412,-92.0613,10.0,0.837,182.0,,'11111222,11111222,99999999' 
WAVCIS,ioos:station:WAVCIS:CSI03:3,2010-12-02T11:00:00Z,29.4412,-92.0613,10.0,0.862,188.0,,'11111222,11111222,99999999' 
WAVCIS,ioos:station:WAVCIS:CSI03:3,2010-12-02T12:00:00Z,29.4412,-92.0613,10.0,2.196,170.0,,'11111222,11111222,99999999' 
WAVCIS,ioos:station:WAVCIS:CSI03:3,2010-12-02T13:00:00Z,29.4412,-92.0613,10.0,3.966,148.0,,'11111222,11111222,99999999' 
WAVCIS,ioos:station:WAVCIS:CSI03:3,2010-12-02T14:00:00Z,29.4412,-92.0613,10.0,4.011,144.0,,'11111222,11111222,99999999' 
WAVCIS,ioos:station:WAVCIS:CSI03:3,2010-12-02T15:00:00Z,29.4412,-92.0613,10.0,3.673,140.0,,'11111222,11111222,99999999' 
WAVCIS,ioos:station:WAVCIS:CSI03:3,2010-12-02T16:00:00Z,29.4412,-92.0613,10.0,3.697,125.0,,'11111222,11111222,99999999' 
WAVCIS,ioos:station:WAVCIS:CSI03:3,2010-12-02T17:00:00Z,29.4412,-92.0613,10.0,3.819,123.0,,'11111222,11111222,99999999' 
WAVCIS,ioos:station:WAVCIS:CSI03:3,2010-12-02T18:00:00Z,29.4412,-92.0613,10.0,3.886,110.0,,'11111222,11111222,99999999' 
WAVCIS,ioos:station:WAVCIS:CSI03:3,2010-12-02T19:00:00Z,29.4412,-92.0613,10.0,4.307,130.0,,'11111222,11111222,99999999' 
WAVCIS,ioos:station:WAVCIS:CSI03:3,2010-12-02T20:00:00Z,29.4412,-92.0613,10.0,5.34,134.0,,'11111222,11111222,99999999' 
WAVCIS,ioos:station:WAVCIS:CSI03:3,2010-12-02T21:00:00Z,29.4412,-92.0613,10.0,5.634,142.0,,'11111222,11111222,99999999' 
WAVCIS,ioos:station:WAVCIS:CSI03:3,2010-12-02T22:00:00Z,29.4412,-92.0613,10.0,4.761,138.0,,'11111222,11111222,99999999' 
WAVCIS,ioos:station:WAVCIS:CSI03:3,2010-12-02T23:00:00Z,29.4412,-92.0613,10.0,4.805,144.0,,'11111222,11111222,99999999' 
WAVCIS,ioos:station:WAVCIS:CSI03:3,2010-12-03T00:00:00Z,29.4412,-92.0613,10.0,4.963,154.0,,'11111222,11111222,99999999' 
WAVCIS,ioos:station:WAVCIS:CSI03:3,2010-12-03T01:00:00Z,29.4412,-92.0613,10.0,4.659,151.0,,'11111222,11111222,99999999' 
WAVCIS,ioos:station:WAVCIS:CSI03:3,2010-12-03T02:00:00Z,29.4412,-92.0613,10.0,4.804,145.0,,'11111222,11111222,99999999' 
WAVCIS,ioos:station:WAVCIS:CSI03:3,2010-12-03T03:00:00Z,29.4412,-92.0613,10.0,4.719,145.0,,'11111222,11111222,99999999' 
WAVCIS,ioos:station:WAVCIS:CSI03:3,2010-12-03T04:00:00Z,29.4412,-92.0613,10.0,4.703,156.0,,'11111222,11111222,99999999' 
WAVCIS,ioos:station:WAVCIS:CSI03:3,2010-12-03T05:00:00Z,29.4412,-92.0613,10.0,4.176,155.0,,'11111222,11111222,99999999' 
WAVCIS,ioos:station:WAVCIS:CSI03:3,2010-12-03T06:00:00Z,29.4412,-92.0613,10.0,3.856,150.0,,'11111222,11111222,99999999' 
WAVCIS,ioos:station:WAVCIS:CSI03:3,2010-12-03T07:00:00Z,29.4412,-92.0613,10.0,2.724,145.0,,'11111222,11111222,99999999' 
WAVCIS,ioos:station:WAVCIS:CSI03:3,2010-12-03T08:00:00Z,29.4412,-92.0613,10.0,2.499,168.0,,'11111222,11111222,99999999' 
WAVCIS,ioos:station:WAVCIS:CSI03:3,2010-12-03T09:00:00Z,29.4412,-92.0613,10.0,2.825,141.0,,'11111222,11111222,99999999' 
WAVCIS,ioos:station:WAVCIS:CSI03:3,2010-12-03T10:00:00Z,29.4412,-92.0613,10.0,2.516,126.0,,'11111222,11111222,99999999' 
WAVCIS,ioos:station:WAVCIS:CSI03:3,2010-12-03T11:00:00Z,29.4412,-92.0613,10.0,3.346,110.0,,'11111222,11111222,99999999' 
WAVCIS,ioos:station:WAVCIS:CSI03:3,2010-12-03T12:00:00Z,29.4412,-92.0613,10.0,3.803,102.0,,'11111222,11111222,99999999' 
WAVCIS,ioos:station:WAVCIS:CSI03:3,2010-12-03T13:00:00Z,29.4412,-92.0613,10.0,3.637,105.0,,'11111222,11111222,99999999' 
WAVCIS,ioos:station:WAVCIS:CSI03:3,2010-12-03T14:00:00Z,29.4412,-92.0613,10.0,3.277,116.0,,'11111222,11111222,99999999' 
WAVCIS,ioos:station:WAVCIS:CSI03:3,2010-12-03T15:00:00Z,29.4412,-92.0613,10.0,3.827,121.0,,'11111222,11111222,99999999' 
WAVCIS,ioos:station:WAVCIS:CSI03:3,2010-12-03T16:00:00Z,29.4412,-92.0613,10.0,3.747,122.0,,'11111222,11111222,99999999' 
WAVCIS,ioos:station:WAVCIS:CSI03:3,2010-12-03T17:00:00Z,29.4412,-92.0613,10.0,3.478,122.0,,'11111222,11111222,99999999' 
WAVCIS,ioos:station:WAVCIS:CSI03:3,2010-12-03T18:00:00Z,29.4412,-92.0613,10.0,3.731,145.0,,'11111222,11111222,99999999' 
WAVCIS,ioos:station:WAVCIS:CSI03:3,2010-12-03T19:00:00Z,29.4412,-92.0613,10.0,3.839,145.0,,'11111222,11111222,99999999' 
WAVCIS,ioos:station:WAVCIS:CSI03:3,2010-12-03T20:00:00Z,29.4412,-92.0613,10.0,3.671,165.0,,'11111222,11111222,99999999' 
WAVCIS,ioos:station:WAVCIS:CSI03:3,2010-12-03T21:00:00Z,29.4412,-92.0613,10.0,3.3,170.0,,'11111222,11111222,99999999' 
WAVCIS,ioos:station:WAVCIS:CSI03:3,2010-12-03T22:00:00Z,29.4412,-92.0613,10.0,2.906,173.0,,'11111222,11111222,99999999' 
WAVCIS,ioos:station:WAVCIS:CSI03:3,2010-12-03T23:00:00Z,29.4412,-92.0613,10.0,4.374,183.0,,'11111222,11111222,99999999' 
WAVCIS,ioos:station:WAVCIS:CSI03:3,2010-12-04T00:00:00Z,29.4412,-92.0613,10.0,3.492,174.0,,'11111222,11111222,99999999' 
WAVCIS,ioos:station:WAVCIS:CSI03:3,2010-12-04T01:00:00Z,29.4412,-92.0613,10.0,3.514,182.0,,'11111222,11111222,99999999' 
WAVCIS,ioos:station:WAVCIS:CSI03:3,2010-12-04T02:00:00Z,29.4412,-92.0613,10.0,3.612,179.0,,'11111222,11111222,99999999' 
WAVCIS,ioos:station:WAVCIS:CSI03:3,2010-12-04T03:00:00Z,29.4412,-92.0613,10.0,4.315,181.0,,'11111222,11111222,99999999' 
WAVCIS,ioos:station:WAVCIS:CSI03:3,2010-12-04T04:00:00Z,29.4412,-92.0613,10.0,5.231,181.0,,'11111222,11111222,99999999' 
WAVCIS,ioos:station:WAVCIS:CSI03:3,2010-12-04T05:00:00Z,29.4412,-92.0613,10.0,5.362,180.0,,'11111222,11111222,99999999' 
WAVCIS,ioos:station:WAVCIS:CSI03:3,2010-12-04T06:00:00Z,29.4412,-92.0613,10.0,3.345,195.0,,'11111222,11111222,99999999' 
WAVCIS,ioos:station:WAVCIS:CSI03:3,2010-12-04T07:00:00Z,29.4412,-92.0613,10.0,1.225,224.0,,'11111222,11111222,99999999' 
WAVCIS,ioos:station:WAVCIS:CSI03:3,2010-12-04T08:00:00Z,29.4412,-92.0613,10.0,1.081,207.0,,'11111222,11111222,99999999' 
WAVCIS,ioos:station:WAVCIS:CSI03:3,2010-12-04T09:00:00Z,29.4412,-92.0613,10.0,0.799,215.0,,'11111222,11111222,99999999' 
WAVCIS,ioos:station:WAVCIS:CSI03:3,2010-12-04T10:00:00Z,29.4412,-92.0613,10.0,0.705,202.0,,'11111222,11111222,99999999' 
WAVCIS,ioos:station:WAVCIS:CSI03:3,2010-12-04T11:00:00Z,29.4412,-92.0613,10.0,1.297,199.0,,'11111222,11111222,99999999' 
WAVCIS,ioos:station:WAVCIS:CSI03:3,2010-12-04T12:00:00Z,29.4412,-92.0613,10.0,0.59,203.0,,'11111222,11111222,99999999' 
WAVCIS,ioos:station:WAVCIS:CSI03:3,2010-12-04T13:00:00Z,29.4412,-92.0613,10.0,1.274,190.0,,'11111222,11111222,99999999' 
WAVCIS,ioos:station:WAVCIS:CSI03:3,2010-12-04T14:00:00Z,29.4412,-92.0613,10.0,0.857,183.0,,'11111222,11111222,99999999' 
WAVCIS,ioos:station:WAVCIS:CSI03:3,2010-12-04T15:00:00Z,29.4412,-92.0613,10.0,1.34,184.0,,'11111222,11111222,99999999' 
WAVCIS,ioos:station:WAVCIS:CSI03:3,2010-12-04T16:00:00Z,29.4412,-92.0613,10.0,3.442,243.0,,'11111222,11111222,99999999' 
WAVCIS,ioos:station:WAVCIS:CSI03:3,2010-12-04T17:00:00Z,29.4412,-92.0613,10.0,3.216,265.0,,'11111222,11111222,99999999' 
WAVCIS,ioos:station:WAVCIS:CSI03:3,2010-12-04T18:00:00Z,29.4412,-92.0613,10.0,3.339,264.0,,'11111222,11111222,99999999' 
WAVCIS,ioos:station:WAVCIS:CSI03:3,2010-12-04T19:00:00Z,29.4412,-92.0613,10.0,4.291,244.0,,'11111222,11111222,99999999' 
WAVCIS,ioos:station:WAVCIS:CSI03:3,2010-12-04T20:00:00Z,29.4412,-92.0613,10.0,4.318,245.0,,'11111222,11111222,99999999' 
WAVCIS,ioos:station:WAVCIS:CSI03:3,2010-12-04T21:00:00Z,29.4412,-92.0613,10.0,3.006,249.0,,'11111222,11111222,99999999' 
WAVCIS,ioos:station:WAVCIS:CSI03:3,2010-12-04T22:00:00Z,29.4412,-92.0613,10.0,3.182,269.0,,'11111222,11111222,99999999' 
WAVCIS,ioos:station:WAVCIS:CSI03:3,2010-12-04T23:00:00Z,29.4412,-92.0613,10.0,3.565,262.0,,'11111222,11111222,99999999' 
WAVCIS,ioos:station:WAVCIS:CSI03:3,2010-12-05T00:00:00Z,29.4412,-92.0613,10.0,4.6,239.0,,'11111222,11111222,99999999' 
WAVCIS,ioos:station:WAVCIS:CSI03:3,2010-12-05T01:00:00Z,29.4412,-92.0613,10.0,4.69,237.0,,'11111222,11111222,99999999' 
WAVCIS,ioos:station:WAVCIS:CSI03:3,2010-12-05T02:00:00Z,29.4412,-92.0613,10.0,3.769,263.0,,'11111222,11111222,99999999' 
WAVCIS,ioos:station:WAVCIS:CSI03:3,2010-12-05T03:00:00Z,29.4412,-92.0613,10.0,3.895,256.0,,'11111222,11111222,99999999' 
WAVCIS,ioos:station:WAVCIS:CSI03:3,2010-12-05T04:00:00Z,29.4412,-92.0613,10.0,4.4,259.0,,'11111222,11111222,99999999' 
WAVCIS,ioos:station:WAVCIS:CSI03:3,2010-12-05T05:00:00Z,29.4412,-92.0613,10.0,2.131,269.0,,'11111222,11111222,99999999' 
WAVCIS,ioos:station:WAVCIS:CSI03:3,2010-12-05T06:00:00Z,29.4412,-92.0613,10.0,2.441,270.0,,'11111222,11111222,99999999' 
WAVCIS,ioos:station:WAVCIS:CSI03:3,2010-12-05T07:00:00Z,29.4412,-92.0613,10.0,2.022,270.0,,'11111222,11111222,99999999' 
WAVCIS,ioos:station:WAVCIS:CSI03:3,2010-12-05T08:00:00Z,29.4412,-92.0613,10.0,1.592,270.0,,'11111222,11111222,99999999' 
WAVCIS,ioos:station:WAVCIS:CSI03:3,2010-12-05T09:00:00Z,29.4412,-92.0613,10.0,7.33,15.0,,'11111222,11111222,99999999' 
WAVCIS,ioos:station:WAVCIS:CSI03:3,2010-12-05T10:00:00Z,29.4412,-92.0613,10.0,6.382,34.0,,'11111222,11111222,99999999' 
WAVCIS,ioos:station:WAVCIS:CSI03:3,2010-12-05T11:00:00Z,29.4412,-92.0613,10.0,7.81,24.0,,'11111222,11111222,99999999' 
WAVCIS,ioos:station:WAVCIS:CSI03:3,2010-12-05T12:00:00Z,29.4412,-92.0613,10.0,7.53,26.0,,'11111222,11111222,99999999' 
WAVCIS,ioos:station:WAVCIS:CSI03:3,2010-12-05T13:00:00Z,29.4412,-92.0613,10.0,7.43,27.0,,'11111222,11111222,99999999' 
WAVCIS,ioos:station:WAVCIS:CSI03:3,2010-12-05T14:00:00Z,29.4412,-92.0613,10.0,6.751,26.0,,'11111222,11111222,99999999' 
WAVCIS,ioos:station:WAVCIS:CSI03:3,2010-12-05T15:00:00Z,29.4412,-92.0613,10.0,6.926,28.0,,'11111222,11111222,99999999' 
WAVCIS,ioos:station:WAVCIS:CSI03:3,2010-12-05T16:00:00Z,29.4412,-92.0613,10.0,6.106,31.0,,'11111222,11111222,99999999' 
WAVCIS,ioos:station:WAVCIS:CSI03:3,2010-12-05T17:00:00Z,29.4412,-92.0613,10.0,6.045,31.0,,'11111222,11111222,99999999' 
WAVCIS,ioos:station:WAVCIS:CSI03:3,2010-12-05T18:00:00Z,29.4412,-92.0613,10.0,6.068,27.0,,'11111222,11111222,99999999' 
WAVCIS,ioos:station:WAVCIS:CSI03:3,2010-12-05T19:00:00Z,29.4412,-92.0613,10.0,6.438,22.0,,'11111222,11111222,99999999' 
WAVCIS,ioos:station:WAVCIS:CSI03:3,2010-12-05T20:00:00Z,29.4412,-92.0613,10.0,7.22,20.0,,'11111222,11111222,99999999' 
WAVCIS,ioos:station:WAVCIS:CSI03:3,2010-12-05T21:00:00Z,29.4412,-92.0613,10.0,5.933,23.0,,'11111222,11111222,99999999' 
WAVCIS,ioos:station:WAVCIS:CSI03:3,2010-12-05T22:00:00Z,29.4412,-92.0613,10.0,6.129,22.0,,'11111222,11111222,99999999' 
WAVCIS,ioos:station:WAVCIS:CSI03:3,2010-12-05T23:00:00Z,29.4412,-92.0613,10.0,6.561,24.0,,'11111222,11111222,99999999' 
WAVCIS,ioos:station:WAVCIS:CSI03:3,2010-12-06T00:00:00Z,29.4412,-92.0613,10.0,6.123,24.0,,'11111222,11111222,99999999' 
WAVCIS,ioos:station:WAVCIS:CSI03:3,2010-12-06T01:00:00Z,29.4412,-92.0613,10.0,6.736,28.0,,'11111222,11111222,99999999' 
WAVCIS,ioos:station:WAVCIS:CSI03:3,2010-12-06T02:00:00Z,29.4412,-92.0613,10.0,7.12,31.0,,'11111222,11111222,99999999' 
WAVCIS,ioos:station:WAVCIS:CSI03:3,2010-12-06T03:00:00Z,29.4412,-92.0613,10.0,6.951,31.0,,'11111222,11111222,99999999' 
WAVCIS,ioos:station:WAVCIS:CSI03:3,2010-12-06T04:00:00Z,29.4412,-92.0613,10.0,7.36,31.0,,'11111222,11111222,99999999' 
WAVCIS,ioos:station:WAVCIS:CSI03:3,2010-12-06T05:00:00Z,29.4412,-92.0613,10.0,6.786,34.0,,'11111222,11111222,99999999' 
WAVCIS,ioos:station:WAVCIS:CSI03:3,2010-12-06T06:00:00Z,29.4412,-92.0613,10.0,7.11,47.0,,'11111222,11111222,99999999' 
WAVCIS,ioos:station:WAVCIS:CSI03:3,2010-12-06T07:00:00Z,29.4412,-92.0613,10.0,8.78,52.0,,'11111222,11111222,99999999' 
WAVCIS,ioos:station:WAVCIS:CSI03:3,2010-12-06T08:00:00Z,29.4412,-92.0613,10.0,6.939,49.0,,'11111222,11111222,99999999' 
WAVCIS,ioos:station:WAVCIS:CSI03:3,2010-12-06T09:00:00Z,29.4412,-92.0613,10.0,8.43,51.0,,'11111222,11111222,99999999' 
WAVCIS,ioos:station:WAVCIS:CSI03:3,2010-12-06T10:00:00Z,29.4412,-92.0613,10.0,9.62,56.0,,'11111222,11111222,99999999' 
WAVCIS,ioos:station:WAVCIS:CSI03:3,2010-12-06T11:00:00Z,29.4412,-92.0613,10.0,9.07,55.0,,'11111222,11111222,99999999' 
WAVCIS,ioos:station:WAVCIS:CSI03:3,2010-12-06T12:00:00Z,29.4412,-92.0613,10.0,9.48,55.0,,'11111222,11111222,99999999' 
WAVCIS,ioos:station:WAVCIS:CSI03:3,2010-12-06T13:00:00Z,29.4412,-92.0613,10.0,9.39,55.0,,'11111222,11111222,99999999' 
WAVCIS,ioos:station:WAVCIS:CSI03:3,2010-12-06T14:00:00Z,29.4412,-92.0613,10.0,8.14,54.0,,'11111222,11111222,99999999' 
WAVCIS,ioos:station:WAVCIS:CSI03:3,2010-12-06T15:00:00Z,29.4412,-92.0613,10.0,8.9,56.0,,'11111222,11111222,99999999' 
WAVCIS,ioos:station:WAVCIS:CSI03:3,2010-12-06T16:00:00Z,29.4412,-92.0613,10.0,5.66,52.0,,'11111222,11111222,99999999' 
WAVCIS,ioos:station:WAVCIS:CSI03:3,2010-12-06T17:00:00Z,29.4412,-92.0613,10.0,4.133,41.0,,'11111222,11111222,99999999' 
WAVCIS,ioos:station:WAVCIS:CSI03:3,2010-12-06T18:00:00Z,29.4412,-92.0613,10.0,3.895,27.0,,'11111222,11111222,99999999' 
WAVCIS,ioos:station:WAVCIS:CSI03:3,2010-12-06T19:00:00Z,29.4412,-92.0613,10.0,4.121,19.0,,'11111222,11111222,99999999' 
WAVCIS,ioos:station:WAVCIS:CSI03:3,2010-12-06T20:00:00Z,29.4412,-92.0613,10.0,3.842,15.0,,'11111222,11111222,99999999' 
WAVCIS,ioos:station:WAVCIS:CSI03:3,2010-12-06T21:00:00Z,29.4412,-92.0613,10.0,3.683,359.0,,'11111222,11111222,99999999' 
WAVCIS,ioos:station:WAVCIS:CSI03:3,2010-12-06T22:00:00Z,29.4412,-92.0613,10.0,4.086,357.0,,'11111222,11111222,99999999' 
WAVCIS,ioos:station:WAVCIS:CSI03:3,2010-12-06T23:00:00Z,29.4412,-92.0613,10.0,5.413,352.0,,'11111222,11111222,99999999' 
WAVCIS,ioos:station:WAVCIS:CSI03:3,2010-12-07T00:00:00Z,29.4412,-92.0613,10.0,5.197,359.0,,'11111222,11111222,99999999' 
WAVCIS,ioos:station:WAVCIS:CSI03:3,2010-12-07T01:00:00Z,29.4412,-92.0613,10.0,5.28,10.0,,'11111222,11111222,99999999' 
WAVCIS,ioos:station:WAVCIS:CSI03:3,2010-12-07T02:00:00Z,29.4412,-92.0613,10.0,3.107,42.0,,'11111222,11111222,99999999' 
WAVCIS,ioos:station:WAVCIS:CSI03:3,2010-12-07T03:00:00Z,29.4412,-92.0613,10.0,3.939,22.0,,'11111222,11111222,99999999' 
WAVCIS,ioos:station:WAVCIS:CSI03:3,2010-12-07T04:00:00Z,29.4412,-92.0613,10.0,3.154,38.0,,'11111222,11111222,99999999' 
WAVCIS,ioos:station:WAVCIS:CSI03:3,2010-12-07T05:00:00Z,29.4412,-92.0613,10.0,3.091,41.0,,'11111222,11111222,99999999' 
WAVCIS,ioos:station:WAVCIS:CSI03:3,2010-12-07T06:00:00Z,29.4412,-92.0613,10.0,2.832,39.0,,'11111222,11111222,99999999' 
WAVCIS,ioos:station:WAVCIS:CSI03:3,2010-12-07T07:00:00Z,29.4412,-92.0613,10.0,5.737,58.0,,'11111222,11111222,99999999' 
WAVCIS,ioos:station:WAVCIS:CSI03:3,2010-12-07T08:00:00Z,29.4412,-92.0613,10.0,4.432,65.0,,'11111222,11111222,99999999' 
WAVCIS,ioos:station:WAVCIS:CSI03:3,2010-12-07T09:00:00Z,29.4412,-92.0613,10.0,4.966,62.0,,'11111222,11111222,99999999' 
WAVCIS,ioos:station:WAVCIS:CSI03:3,2010-12-07T10:00:00Z,29.4412,-92.0613,10.0,3.965,65.0,,'11111222,11111222,99999999' 
WAVCIS,ioos:station:WAVCIS:CSI03:3,2010-12-07T11:00:00Z,29.4412,-92.0613,10.0,4.424,69.0,,'11111222,11111222,99999999' 
WAVCIS,ioos:station:WAVCIS:CSI03:3,2010-12-07T12:00:00Z,29.4412,-92.0613,10.0,3.604,82.0,,'11111222,11111222,99999999' 
WAVCIS,ioos:station:WAVCIS:CSI03:3,2010-12-07T13:00:00Z,29.4412,-92.0613,10.0,3.239,85.0,,'11111222,11111222,99999999' 
WAVCIS,ioos:station:WAVCIS:CSI03:3,2010-12-07T14:00:00Z,29.4412,-92.0613,10.0,3.632,90.0,,'11111222,11111222,99999999' 
WAVCIS,ioos:station:WAVCIS:CSI03:3,2010-12-07T15:00:00Z,29.4412,-92.0613,10.0,3.983,103.0,,'11111222,11111222,99999999' 
WAVCIS,ioos:station:WAVCIS:CSI03:3,2010-12-07T16:00:00Z,29.4412,-92.0613,10.0,4.312,112.0,,'11111222,11111222,99999999' 
WAVCIS,ioos:station:WAVCIS:CSI03:3,2010-12-07T17:00:00Z,29.4412,-92.0613,10.0,4.136,122.0,,'11111222,11111222,99999999' 
WAVCIS,ioos:station:WAVCIS:CSI03:3,2010-12-07T18:00:00Z,29.4412,-92.0613,10.0,3.651,127.0,,'11111222,11111222,99999999' 
WAVCIS,ioos:station:WAVCIS:CSI03:3,2010-12-07T19:00:00Z,29.4412,-92.0613,10.0,3.205,126.0,,'11111222,11111222,99999999' 
WAVCIS,ioos:station:WAVCIS:CSI03:3,2010-12-07T20:00:00Z,29.4412,-92.0613,10.0,3.616,143.0,,'11111222,11111222,99999999' 
WAVCIS,ioos:station:WAVCIS:CSI03:3,2010-12-07T21:00:00Z,29.4412,-92.0613,10.0,3.441,140.0,,'11111222,11111222,99999999' 
WAVCIS,ioos:station:WAVCIS:CSI03:3,2010-12-07T22:00:00Z,29.4412,-92.0613,10.0,2.953,159.0,,'11111222,11111222,99999999' 
WAVCIS,ioos:station:WAVCIS:CSI03:3,2010-12-07T23:00:00Z,29.4412,-92.0613,10.0,3.21,156.0,,'11111222,11111222,99999999' 
WAVCIS,ioos:station:WAVCIS:CSI03:3,2010-12-08T00:00:00Z,29.4412,-92.0613,10.0,3.048,158.0,,'11111222,11111222,99999999' 
WAVCIS,ioos:station:WAVCIS:CSI03:3,2010-12-08T01:00:00Z,29.4412,-92.0613,10.0,2.935,159.0,,'11111222,11111222,99999999' 
WAVCIS,ioos:station:WAVCIS:CSI03:3,2010-12-08T02:00:00Z,29.4412,-92.0613,10.0,3.089,139.0,,'11111222,11111222,99999999' 
WAVCIS,ioos:station:WAVCIS:CSI03:3,2010-12-08T03:00:00Z,29.4412,-92.0613,10.0,3.507,134.0,,'11111222,11111222,99999999' 
WAVCIS,ioos:station:WAVCIS:CSI03:3,2010-12-08T04:00:00Z,29.4412,-92.0613,10.0,3.207,121.0,,'11111222,11111222,99999999' 
WAVCIS,ioos:station:WAVCIS:CSI03:3,2010-12-08T05:00:00Z,29.4412,-92.0613,10.0,4.421,106.0,,'11111222,11111222,99999999' 
WAVCIS,ioos:station:WAVCIS:CSI03:3,2010-12-08T06:00:00Z,29.4412,-92.0613,10.0,4.327,120.0,,'11111222,11111222,99999999' 
WAVCIS,ioos:station:WAVCIS:CSI03:3,2010-12-08T07:00:00Z,29.4412,-92.0613,10.0,5.308,119.0,,'11111222,11111222,99999999' 
WAVCIS,ioos:station:WAVCIS:CSI03:3,2010-12-08T08:00:00Z,29.4412,-92.0613,10.0,6.284,117.0,,'11111222,11111222,99999999' 
WAVCIS,ioos:station:WAVCIS:CSI03:3,2010-12-08T09:00:00Z,29.4412,-92.0613,10.0,5.724,22.0,,'11111222,11111222,99999999' 
WAVCIS,ioos:station:WAVCIS:CSI03:3,2010-12-08T10:00:00Z,29.4412,-92.0613,10.0,8.62,18.0,,'11111222,11111222,99999999' 
WAVCIS,ioos:station:WAVCIS:CSI03:3,2010-12-08T11:00:00Z,29.4412,-92.0613,10.0,6.035,43.0,,'11111222,11111222,99999999' 
WAVCIS,ioos:station:WAVCIS:CSI03:3,2010-12-08T12:00:00Z,29.4412,-92.0613,10.0,11.06,57.0,,'11111222,11111222,99999999' 
WAVCIS,ioos:station:WAVCIS:CSI03:3,2010-12-08T13:00:00Z,29.4412,-92.0613,10.0,9.8,58.0,,'11111222,11111222,99999999' 
WAVCIS,ioos:station:WAVCIS:CSI03:3,2010-12-08T14:00:00Z,29.4412,-92.0613,10.0,9.63,56.0,,'11111222,11111222,99999999' 
WAVCIS,ioos:station:WAVCIS:CSI03:3,2010-12-08T15:00:00Z,29.4412,-92.0613,10.0,8.56,55.0,,'11111222,11111222,99999999' 
WAVCIS,ioos:station:WAVCIS:CSI03:3,2010-12-08T16:00:00Z,29.4412,-92.0613,10.0,7.99,56.0,,'11111222,11111222,99999999' 
WAVCIS,ioos:station:WAVCIS:CSI03:3,2010-12-08T17:00:00Z,29.4412,-92.0613,10.0,5.227,34.0,,'11111222,11111222,99999999' 
WAVCIS,ioos:station:WAVCIS:CSI03:3,2010-12-08T18:00:00Z,29.4412,-92.0613,10.0,5.62,53.0,,'11111222,11111222,99999999' 
WAVCIS,ioos:station:WAVCIS:CSI03:3,2010-12-08T19:00:00Z,29.4412,-92.0613,10.0,5.791,26.0,,'11111222,11111222,99999999' 
WAVCIS,ioos:station:WAVCIS:CSI03:3,2010-12-08T20:00:00Z,29.4412,-92.0613,10.0,6.368,15.0,,'11111222,11111222,99999999' 
WAVCIS,ioos:station:WAVCIS:CSI03:3,2010-12-08T21:00:00Z,29.4412,-92.0613,10.0,5.754,23.0,,'11111222,11111222,99999999' 
WAVCIS,ioos:station:WAVCIS:CSI03:3,2010-12-08T22:00:00Z,29.4412,-92.0613,10.0,5.09,30.0,,'11111222,11111222,99999999' 
WAVCIS,ioos:station:WAVCIS:CSI03:3,2010-12-08T23:00:00Z,29.4412,-92.0613,10.0,5.164,28.0,,'11111222,11111222,99999999' 
WAVCIS,ioos:station:WAVCIS:CSI03:3,2010-12-09T00:00:00Z,29.4412,-92.0613,10.0,5.174,23.0,,'11111222,11111222,99999999' 
WAVCIS,ioos:station:WAVCIS:CSI03:3,2010-12-09T01:00:00Z,29.4412,-92.0613,10.0,7.11,16.0,,'11111222,11111222,99999999' 
WAVCIS,ioos:station:WAVCIS:CSI03:3,2010-12-09T02:00:00Z,29.4412,-92.0613,10.0,7.28,13.0,,'11111222,11111222,99999999' 
WAVCIS,ioos:station:WAVCIS:CSI03:3,2010-12-09T03:00:00Z,29.4412,-92.0613,10.0,5.133,25.0,,'11111222,11111222,99999999' 
WAVCIS,ioos:station:WAVCIS:CSI03:3,2010-12-09T04:00:00Z,29.4412,-92.0613,10.0,4.099,38.0,,'11111222,11111222,99999999' 
WAVCIS,ioos:station:WAVCIS:CSI03:3,2010-12-09T05:00:00Z,29.4412,-92.0613,10.0,4.352,41.0,,'11111222,11111222,99999999' 